PST,Max TemperatureF,Mean TemperatureF,Min TemperatureF,Max Dew PointF,MeanDew PointF,Min DewpointF,Max Humidity, Mean Humidity, Min Humidity, Max Sea Level PressureIn, Mean Sea Level PressureIn, Min Sea Level PressureIn, Max VisibilityMiles, Mean VisibilityMiles, Min VisibilityMiles, Max Wind SpeedMPH, Mean Wind SpeedMPH, Max Gust SpeedMPH,PrecipitationIn, CloudCover, Events, WindDirDegrees
2013-2-1,66,53,40,46,42,37,89,69,48,30.24,30.19,30.13,7,5,4,7,2,9,0.00,0,,156
2013-2-2,66,57,47,49,46,43,86,67,48,30.26,30.22,30.18,6,3,2,9,4,10,0.00,1,,8
2013-2-3,65,56,46,49,46,43,100,76,52,30.23,30.17,30.09,4,2,0,10,2,12,0.00,2,Fog,314
2013-2-4,65,54,42,48,44,41,89,71,52,30.18,30.12,30.04,3,2,1,10,2,14,0.00,4,,104
2013-2-5,71,58,44,48,45,41,86,63,40,30.10,30.04,29.96,6,3,2,16,6,20,0.00,2,,336
2013-2-6,61,53,45,43,41,38,92,70,47,30.20,30.14,30.11,10,8,4,14,3,15,0.00,4,,16
2013-2-7,56,47,37,43,39,32,86,71,55,30.15,30.09,29.99,10,7,3,15,4,18,0.00,4,,304
2013-2-8,54,48,41,41,38,36,96,73,50,29.99,29.94,29.88,10,10,6,20,6,24,0.08,6,Rain,331
2013-2-9,55,45,35,39,31,25,92,61,30,30.11,30.05,29.98,10,10,8,12,4,20,T,1,Rain,49
2013-2-10,57,45,32,31,28,26,75,53,30,30.11,30.07,30.01,10,10,10,10,4,13,0.00,0,,64
2013-2-11,62,48,33,32,27,16,82,50,17,30.27,30.16,30.08,10,10,10,9,2,12,0.00,0,,69
2013-2-12,65,51,37,31,28,23,65,43,20,30.36,30.30,30.26,10,10,10,12,5,15,0.00,0,,74
2013-2-13,65,51,36,35,31,28,70,50,30,30.34,30.27,30.21,10,10,7,10,4,16,0.00,0,,80
2013-2-14,69,53,36,38,35,31,76,53,30,30.26,30.21,30.14,8,7,6,10,4,13,0.00,0,,56
2013-2-15,76,59,41,40,36,32,71,46,21,30.27,30.24,30.19,10,8,5,15,5,18,0.00,0,,13
2013-2-16,73,57,40,41,35,31,70,46,22,30.22,30.12,30.02,10,9,7,14,4,16,0.00,0,,9
2013-2-17,70,56,41,41,37,35,76,52,28,30.02,29.98,29.91,10,8,6,10,4,14,0.00,0,,14
2013-2-18,70,56,42,41,38,33,71,49,26,30.02,29.96,29.87,10,9,6,21,6,24,0.00,0,,41
2013-2-19,55,46,37,42,37,33,89,68,46,29.95,29.83,29.70,10,8,2,28,6,36,0.52,7,Rain,342
2013-2-20,51,45,38,37,35,32,92,71,50,30.06,29.93,29.78,10,10,7,15,6,17,T,7,Rain,295
2013-2-21,59,49,39,38,35,30,85,62,38,30.19,30.09,30.03,10,10,10,13,4,17,0.00,4,,6
2013-2-22,61,48,35,37,34,31,79,58,36,30.26,30.21,30.18,10,10,9,9,3,13,0.00,0,,88
2013-2-23,62,50,38,39,36,33,79,59,39,30.22,30.14,30.06,10,10,7,16,6,21,0.00,2,,338
2013-2-24,61,50,38,34,29,24,73,49,25,30.26,30.20,30.14,10,10,10,8,4,9,0.00,0,,101
2013-2-25,66,50,33,31,28,21,70,46,22,30.28,30.20,30.11,10,10,10,8,3,13,0.00,0,,102
2013-2-26,64,51,37,36,31,25,70,48,25,30.22,30.16,30.11,10,10,10,9,3,14,0.00,0,,155
2013-2-27,70,54,38,34,30,22,70,44,17,30.34,30.28,30.22,10,10,10,10,3,12,0.00,0,,70
2013-2-28,72,56,39,38,31,28,67,44,20,30.43,30.38,30.33,10,10,9,10,4,14,0.00,0,,113